📊 Raw Sensor Data
Showing records 35776 to 35800 of 84,884 total
| ID | Distance (ft) | Battery V | Battery A | Int Temp (°F) | Int Humid (%) | Ext Temp (°F) | Solar V | RSSI | SNR | Time Stamp |
|---|---|---|---|---|---|---|---|---|---|---|
| 49121 | 15.1 | 3.82 | -5 | 60 | 46 | 61 | 0.00 | -70 | 8 | 08/13/2025 10:30 PM |
| 49120 | 15.1 | 3.82 | -5 | 61 | 47 | 62 | 0.00 | -70 | 8 | 08/13/2025 10:15 PM |
| 49119 | 15.1 | 3.82 | -5 | 61 | 47 | 62 | 0.10 | -71 | 8 | 08/13/2025 10:00 PM |
| 49118 | 15.1 | 3.82 | -5 | 62 | 48 | 62 | 0.00 | -71 | 8 | 08/13/2025 09:45 PM |
| 49117 | 15.1 | 3.82 | -5 | 63 | 48 | 63 | 0.00 | -70 | 8 | 08/13/2025 09:30 PM |
| 49116 | 15.1 | 3.82 | -5 | 63 | 49 | 64 | 0.00 | -70 | 8 | 08/13/2025 09:15 PM |
| 49115 | 15.1 | 3.91 | -5 | 64 | 50 | 64 | 0.00 | -70 | 8 | 08/13/2025 09:00 PM |
| 49114 | 15.1 | 3.91 | -5 | 65 | 52 | 65 | 0.00 | -70 | 8 | 08/13/2025 08:45 PM |
| 49113 | 15.1 | 3.83 | -5 | 67 | 53 | 66 | 0.10 | -70 | 7 | 08/13/2025 08:30 PM |
| 49112 | 15.1 | 3.83 | -5 | 69 | 55 | 67 | 1.20 | -69 | 8 | 08/13/2025 08:15 PM |
| 49111 | 15.2 | 3.82 | -10 | 72 | 55 | 68 | 3.20 | -70 | 8 | 08/13/2025 08:00 PM |
| 49110 | 15.2 | 3.84 | 0 | 78 | 53 | 73 | 4.50 | -70 | 8 | 08/13/2025 07:45 PM |
| 49109 | 15.3 | 3.85 | 0 | 81 | 53 | 75 | 4.50 | -70 | 8 | 08/13/2025 07:30 PM |
| 49108 | 15.3 | 3.95 | 7 | 83 | 53 | 78 | 4.50 | -71 | 7 | 08/13/2025 07:15 PM |
| 49107 | 15.3 | 3.90 | 17 | 86 | 52 | 78 | 4.60 | -71 | 7 | 08/13/2025 07:00 PM |
| 49106 | 15.3 | 3.96 | 0 | 88 | 51 | 80 | 4.50 | -70 | 7 | 08/13/2025 06:45 PM |
| 49105 | 15.3 | 3.91 | 5 | 90 | 51 | 82 | 5.10 | -70 | 8 | 08/13/2025 06:30 PM |
| 49104 | 15.4 | 3.91 | 0 | 92 | 50 | 83 | 5.10 | -70 | 8 | 08/13/2025 06:15 PM |
| 49103 | 15.4 | 3.91 | 0 | 93 | 49 | 86 | 5.10 | -70 | 8 | 08/13/2025 06:00 PM |
| 49102 | 15.4 | 3.91 | 5 | 94 | 49 | 85 | 5.10 | -69 | 8 | 08/13/2025 05:45 PM |
| 49101 | 15.4 | 4.07 | 0 | 95 | 48 | 86 | 5.10 | -70 | 8 | 08/13/2025 05:30 PM |
| 49100 | 15.4 | 4.11 | 5 | 96 | 48 | 87 | 5.10 | -69 | 8 | 08/13/2025 05:15 PM |
| 49099 | 15.4 | 3.91 | 5 | 97 | 47 | 88 | 5.10 | -70 | 8 | 08/13/2025 05:00 PM |
| 49098 | 15.4 | 3.91 | 5 | 97 | 47 | 87 | 5.10 | -69 | 8 | 08/13/2025 04:45 PM |
| 49097 | 15.4 | 3.91 | 0 | 98 | 46 | 90 | 5.10 | -70 | 7 | 08/13/2025 04:30 PM |